Torna al catalogo

ARIANE 42P+ DEB

AttivoHEO
NORAD 34184·DEBRIS·🇫🇷 France

Lanciato Oct 28, 1992 da Guiana Space Centre

Loading…

Prossimi Passaggi (prossime 24 ore)

TLE

AggiornatoSource: Space-Track

Epoca: Sep 14, 2026, 04:04 UTC

1 34184U 92072Q   26257.16970201  .00004820  00000-0  10693-2 0  9993
2 34184   7.1248 335.6462 6451341 166.7047 225.6391  3.38546158278624

Traccia ARIANE 42P+ DEB in tempo reale con AllMySat

Download on the App Store